SELKV ESGV-ZZZZ

Flight info

Callsign SELKV
Flight time N/A
Altitude 1000
Route DCT ESGV
Aircraft P28A/L-SFG/C

Departure

Time 2026-05-07 18:37
Airport Varberg Getterön Airfield (ESGV)

Arrival

Time N/A
Airport ZZZZ
Time Latitude Longitude Altitude Speed Heading
2026-05-07 18:25 57.12254 12.22503 11 ft 0 kts 48°
2026-05-07 18:31 57.12260 12.22515 11 ft 6 kts 56°
2026-05-07 18:31 57.12294 12.22614 10 ft 13 kts 61°
2026-05-07 18:32 57.12328 12.22777 10 ft 9 kts 73°
2026-05-07 18:32 57.12330 12.22869 10 ft 6 kts 92°
2026-05-07 18:32 57.12332 12.22945 9 ft 6 kts 84°
2026-05-07 18:32 57.12339 12.23056 10 ft 12 kts 82°
2026-05-07 18:33 57.12347 12.23218 12 ft 8 kts 81°
2026-05-07 18:33 57.12356 12.23267 10 ft 0 kts 45°
2026-05-07 18:35 57.12377 12.23300 10 ft 9 kts 39°
2026-05-07 18:36 57.12395 12.23297 8 ft 0 kts 298°
2026-05-07 18:36 57.12402 12.23270 11 ft 15 kts 299°
2026-05-07 18:37 57.12539 12.22802 19 ft 65 kts 298°
2026-05-07 18:37 57.12766 12.21992 233 ft 74 kts 298°
2026-05-07 18:37 57.13018 12.21185 534 ft 72 kts 301°
2026-05-07 18:37 57.13297 12.20293 644 ft 90 kts 302°
2026-05-07 18:38 57.13613 12.19228 798 ft 98 kts 299°
2026-05-07 18:38 57.13918 12.18029 907 ft 110 kts 291°
2026-05-07 18:38 57.13999 12.16605 1043 ft 115 kts 266°
2026-05-07 18:38 57.13745 12.15206 1191 ft 119 kts 245°
2026-05-07 18:39 57.13330 12.13873 1215 ft 119 kts 243°
2026-05-07 18:39 57.12890 12.12591 1255 ft 120 kts 234°
2026-05-07 18:39 57.12222 12.11624 1242 ft 126 kts 207°
2026-05-07 18:39 57.11364 12.11301 1281 ft 127 kts 180°
2026-05-07 18:40 57.10494 12.11656 1238 ft 132 kts 156°
2026-05-07 18:40 57.09760 12.12622 1226 ft 132 kts 131°
2026-05-07 18:40 57.09264 12.14058 1144 ft 132 kts 110°
2026-05-07 18:40 57.09088 12.15689 1091 ft 129 kts 91°
2026-05-07 18:41 57.09075 12.17305 1036 ft 125 kts 86°
2026-05-07 18:41 57.09080 12.18880 998 ft 122 kts 87°
2026-05-07 18:41 57.09098 12.20435 970 ft 119 kts 84°
2026-05-07 18:41 57.09108 12.21953 951 ft 119 kts 86°
2026-05-07 18:42 57.09080 12.23497 915 ft 120 kts 90°
2026-05-07 18:42 57.09002 12.25000 907 ft 119 kts 96°
2026-05-07 18:42 57.08811 12.26482 870 ft 121 kts 102°
2026-05-07 18:42 57.08553 12.27929 851 ft 119 kts 110°
2026-05-07 18:43 57.08182 12.29257 917 ft 115 kts 116°
2026-05-07 18:43 57.07793 12.30560 955 ft 116 kts 115°
2026-05-07 18:43 57.07426 12.31892 987 ft 113 kts 110°
2026-05-07 18:43 57.07392 12.33263 1042 ft 107 kts 69°
2026-05-07 18:44 57.07811 12.34333 1081 ft 102 kts 32°
2026-05-07 18:44 57.08449 12.34638 1207 ft 94 kts 352°
2026-05-07 18:44 57.09102 12.34390 1227 ft 98 kts 341°
2026-05-07 18:44 57.09644 12.33617 1213 ft 102 kts 310°
2026-05-07 18:45 57.10001 12.32461 1222 ft 105 kts 294°
2026-05-07 18:45 57.10196 12.31157 1219 ft 106 kts 287°
2026-05-07 18:45 57.10386 12.29822 1155 ft 110 kts 289°
2026-05-07 18:45 57.10602 12.28439 1078 ft 113 kts 290°
2026-05-07 18:46 57.10815 12.27040 1011 ft 114 kts 289°
2026-05-07 18:46 57.11200 12.25829 1008 ft 108 kts 312°
2026-05-07 18:46 57.11699 12.24806 995 ft 108 kts 314°
2026-05-07 18:46 57.12207 12.23758 978 ft 110 kts 313°
2026-05-07 18:47 57.12701 12.22701 984 ft 109 kts 313°
2026-05-07 18:47 57.13186 12.21631 978 ft 109 kts 310°
2026-05-07 18:47 57.13641 12.20553 991 ft 105 kts 309°
2026-05-07 18:47 57.14098 12.19499 980 ft 107 kts 309°
2026-05-07 18:48 57.14556 12.18397 950 ft 109 kts 308°
2026-05-07 18:48 57.14963 12.17241 965 ft 107 kts 294°
2026-05-07 18:48 57.15037 12.15880 960 ft 112 kts 264°
2026-05-07 18:48 57.14702 12.14590 991 ft 113 kts 233°
2026-05-07 18:49 57.14098 12.13704 1047 ft 113 kts 212°
2026-05-07 18:49 57.13341 12.13167 1016 ft 117 kts 199°
2026-05-07 18:49 57.12565 12.12799 1060 ft 115 kts 194°
2026-05-07 18:49 57.11775 12.12661 1085 ft 117 kts 180°
2026-05-07 18:50 57.10973 12.12830 1116 ft 117 kts 167°
2026-05-07 18:50 57.10224 12.13435 1135 ft 120 kts 146°
2026-05-07 18:50 57.09631 12.14475 1148 ft 120 kts 125°
2026-05-07 18:50 57.09243 12.15799 1191 ft 116 kts 109°
2026-05-07 18:51 57.08969 12.17203 1198 ft 118 kts 105°
2026-05-07 18:51 57.08736 12.18632 1215 ft 116 kts 102°
2026-05-07 18:51 57.08540 12.20085 1194 ft 119 kts 99°
2026-05-07 18:51 57.08380 12.21574 1172 ft 119 kts 98°
2026-05-07 18:52 57.08254 12.23053 1182 ft 115 kts 96°
2026-05-07 18:52 57.08150 12.24514 1199 ft 116 kts 94°
2026-05-07 18:52 57.08053 12.25986 1214 ft 117 kts 95°
2026-05-07 18:52 57.07955 12.27492 1171 ft 121 kts 92°
2026-05-07 18:53 57.07878 12.29004 1198 ft 117 kts 92°
2026-05-07 18:53 57.07807 12.30504 1173 ft 118 kts 92°
2026-05-07 18:53 57.07726 12.32005 1121 ft 119 kts 91°
2026-05-07 18:53 57.07659 12.33548 1053 ft 121 kts 91°
2026-05-07 18:54 57.07638 12.35069 1053 ft 118 kts 77°
2026-05-07 18:54 57.07997 12.36322 1067 ft 109 kts 36°
2026-05-07 18:54 57.08662 12.36851 1092 ft 104 kts 359°
2026-05-07 18:54 57.09335 12.36460 1107 ft 104 kts 322°
2026-05-07 18:55 57.09814 12.35485 1147 ft 102 kts 314°
2026-05-07 18:55 57.10252 12.34418 1116 ft 106 kts 306°
2026-05-07 18:55 57.10653 12.33288 1065 ft 104 kts 303°
2026-05-07 18:55 57.10965 12.32110 1014 ft 103 kts 292°
2026-05-07 18:56 57.11178 12.30843 936 ft 102 kts 286°
2026-05-07 18:56 57.11315 12.29663 849 ft 86 kts 284°
2026-05-07 18:56 57.11398 12.28638 711 ft 77 kts 282°
2026-05-07 18:56 57.11467 12.27696 574 ft 71 kts 281°
2026-05-07 18:57 57.11564 12.26874 445 ft 63 kts 289°
2026-05-07 18:57 57.11713 12.26083 435 ft 68 kts 293°
2026-05-07 18:57 57.11884 12.25261 373 ft 69 kts 295°
2026-05-07 18:57 57.12071 12.24513 235 ft 61 kts 299°
2026-05-07 18:58 57.12259 12.23821 112 ft 61 kts 295°
2026-05-07 18:58 57.12442 12.23149 11 ft 50 kts 297°
2026-05-07 18:58 57.12604 12.22569 51 ft 58 kts 296°
2026-05-07 18:58 57.12793 12.21821 214 ft 70 kts 297°
2026-05-07 18:59 57.13040 12.20999 430 ft 75 kts 303°
2026-05-07 18:59 57.13389 12.20193 595 ft 87 kts 319°
2026-05-07 18:59 57.13907 12.19555 807 ft 91 kts 327°
2026-05-07 18:59 57.14458 12.18939 994 ft 97 kts 329°
2026-05-07 19:00 57.15046 12.18304 1184 ft 100 kts 329°
2026-05-07 19:00 57.15651 12.17639 1280 ft 103 kts 328°
2026-05-07 19:00 57.16069 12.17150 1273 ft 108 kts 327°
2026-05-07 19:00 57.16700 12.16381 1335 ft 107 kts 328°
2026-05-07 19:01 57.17546 12.15399 1354 ft 111 kts 330°
2026-05-07 19:01 57.18216 12.14695 1349 ft 112 kts 330°
2026-05-07 19:01 57.18896 12.13985 1356 ft 113 kts 330°
2026-05-07 19:01 57.19576 12.13279 1376 ft 112 kts 333°
2026-05-07 19:02 57.20047 12.12831 1364 ft 114 kts 334°
2026-05-07 19:02 57.20768 12.12199 1302 ft 116 kts 335°
2026-05-07 19:02 57.21499 12.11588 1301 ft 113 kts 335°
2026-05-07 19:02 57.22225 12.11087 1358 ft 110 kts 342°
2026-05-07 19:03 57.22965 12.10679 1343 ft 112 kts 343°
2026-05-07 19:03 57.23726 12.10280 1307 ft 114 kts 344°
2026-05-07 19:03 57.24502 12.09883 1248 ft 117 kts 344°
2026-05-07 19:03 57.25288 12.09480 1200 ft 118 kts 343°
2026-05-07 19:04 57.26076 12.09098 1189 ft 115 kts 346°
2026-05-07 19:04 57.26869 12.08787 1113 ft 117 kts 348°
2026-05-07 19:04 57.27663 12.08508 1134 ft 115 kts 349°
2026-05-07 19:04 57.28440 12.08255 1193 ft 111 kts 348°
2026-05-07 19:05 57.29213 12.07997 1157 ft 116 kts 350°
2026-05-07 19:05 57.30007 12.07741 1180 ft 114 kts 349°
2026-05-07 19:05 57.30784 12.07477 1239 ft 112 kts 349°
2026-05-07 19:05 57.31547 12.07219 1245 ft 113 kts 348°
2026-05-07 19:06 57.32320 12.06900 1293 ft 113 kts 345°
2026-05-07 19:06 57.33891 12.06226 1245 ft 118 kts 348°
2026-05-07 19:06 57.34700 12.05952 1232 ft 117 kts 350°
2026-05-07 19:07 57.35507 12.05707 1209 ft 118 kts 350°
2026-05-07 19:07 57.36313 12.05508 1190 ft 117 kts 353°
2026-05-07 19:07 57.37120 12.05395 1172 ft 118 kts 356°
2026-05-07 19:07 57.37941 12.05363 1131 ft 118 kts 358°
2026-05-07 19:08 57.38773 12.05363 1048 ft 121 kts 359°
2026-05-07 19:08 57.39607 12.05405 997 ft 120 kts
2026-05-07 19:08 57.40439 12.05496 952 ft 120 kts
2026-05-07 19:08 57.41262 12.05622 931 ft 117 kts
2026-05-07 19:09 57.42073 12.05775 914 ft 117 kts
2026-05-07 19:09 57.42886 12.05965 940 ft 115 kts
2026-05-07 19:09 57.43677 12.06167 960 ft 114 kts
2026-05-07 19:09 57.44466 12.06405 983 ft 115 kts
2026-05-07 19:10 57.45253 12.06643 1008 ft 115 kts
2026-05-07 19:10 57.46040 12.06877 1034 ft 115 kts
2026-05-07 19:10 57.46828 12.07121 1056 ft 115 kts
2026-05-07 19:10 57.47624 12.07307 1071 ft 116 kts
2026-05-07 19:11 57.48428 12.07481 1060 ft 117 kts
2026-05-07 19:11 57.49233 12.07604 1113 ft 115 kts
2026-05-07 19:11 57.50026 12.07709 1131 ft 114 kts
2026-05-07 19:11 57.50818 12.07825 1147 ft 115 kts
2026-05-07 19:12 57.51621 12.07945 1141 ft 115 kts
2026-05-07 19:12 57.52417 12.08063 1135 ft 115 kts
2026-05-07 19:12 57.53209 12.08170 1137 ft 114 kts
2026-05-07 19:12 57.54006 12.08309 1106 ft 116 kts
2026-05-07 19:13 57.54777 12.08663 1144 ft 114 kts 22°
2026-05-07 19:13 57.55435 12.09351 1266 ft 109 kts 31°
2026-05-07 19:13 57.56009 12.10337 1257 ft 117 kts 47°
2026-05-07 19:13 57.56507 12.11567 1295 ft 117 kts 52°
2026-05-07 19:14 57.56960 12.12816 1363 ft 116 kts 54°
2026-05-07 19:14 57.57414 12.14066 1379 ft 118 kts 53°
2026-05-07 19:14 57.57869 12.15324 1363 ft 119 kts 53°
2026-05-07 19:14 57.58339 12.16622 1302 ft 122 kts 52°
2026-05-07 19:15 57.58833 12.17899 1296 ft 119 kts 51°
2026-05-07 19:15 57.59329 12.19142 1302 ft 120 kts 50°
2026-05-07 19:15 57.59841 12.20335 1350 ft 112 kts 47°
2026-05-07 19:15 57.60355 12.21409 1349 ft 111 kts 44°